TimeEST,TemperatureF,Dew PointF,Humidity,Sea Level PressureIn,VisibilityMPH,Wind Direction,Wind SpeedMPH,Gust SpeedMPH,PrecipitationIn,Events,Conditions,WindDirDegrees,DateUTC
12:53 AM,39.0,30.9,73,30.04,10.0,Calm,Calm,-,N/A,,Clear,0,2012-11-26 05:53:00
1:53 AM,36.0,30.0,79,30.04,10.0,NW,4.6,-,N/A,,Clear,310,2012-11-26 06:53:00
2:53 AM,36.0,28.9,76,30.06,10.0,Calm,Calm,-,N/A,,Mostly Cloudy,0,2012-11-26 07:53:00
3:53 AM,33.1,28.0,82,30.06,10.0,Calm,Calm,-,N/A,,Partly Cloudy,0,2012-11-26 08:53:00
4:53 AM,32.0,28.0,85,30.09,10.0,Calm,Calm,-,N/A,,Clear,0,2012-11-26 09:53:00
5:53 AM,30.0,27.0,88,30.10,10.0,Calm,Calm,-,N/A,,Clear,0,2012-11-26 10:53:00
7:53 AM,28.0,25.0,88,30.16,5.0,Calm,Calm,-,N/A,,Clear,0,2012-11-26 12:53:00
8:19 AM,28.4,26.6,93,30.14,2.5,Calm,Calm,-,N/A,,Clear,0,2012-11-26 13:19:00
8:26 AM,30.2,26.6,86,30.14,5.0,Calm,Calm,-,N/A,,Clear,0,2012-11-26 13:26:00
8:53 AM,34.0,30.0,85,30.16,8.0,Calm,Calm,-,N/A,,Clear,0,2012-11-26 13:53:00
9:53 AM,39.9,30.0,68,30.17,10.0,NNE,5.8,-,N/A,,Clear,30,2012-11-26 14:53:00
10:53 AM,44.1,30.0,58,30.18,10.0,ENE,5.8,-,N/A,,Clear,70,2012-11-26 15:53:00
11:53 AM,46.0,28.9,51,30.18,10.0,SE,4.6,-,N/A,,Clear,130,2012-11-26 16:53:00
12:53 PM,48.9,28.0,44,30.16,10.0,Calm,Calm,-,N/A,,Clear,0,2012-11-26 17:53:00
1:53 PM,50.0,28.0,43,30.14,10.0,North,3.5,-,N/A,,Clear,360,2012-11-26 18:53:00
2:53 PM,48.9,27.0,43,30.14,10.0,NNE,5.8,-,N/A,,Clear,30,2012-11-26 19:53:00
3:53 PM,48.9,28.0,44,30.15,10.0,North,6.9,-,N/A,,Overcast,350,2012-11-26 20:53:00
4:53 PM,46.0,30.9,56,30.16,10.0,North,5.8,-,N/A,,Overcast,350,2012-11-26 21:53:00
5:53 PM,45.0,28.0,52,30.17,10.0,North,8.1,-,N/A,,Overcast,360,2012-11-26 22:53:00
6:53 PM,44.1,30.0,58,30.19,10.0,North,6.9,-,N/A,,Overcast,10,2012-11-26 23:53:00
7:53 PM,41.0,30.9,67,30.21,10.0,North,11.5,-,N/A,,Overcast,350,2012-11-27 00:53:00
8:53 PM,39.9,30.0,68,30.24,10.0,North,12.7,-,N/A,,Overcast,350,2012-11-27 01:53:00
9:53 PM,39.0,28.9,67,30.25,10.0,North,11.5,-,N/A,,Overcast,350,2012-11-27 02:53:00
10:53 PM,37.0,30.9,79,30.26,10.0,North,15.0,-,N/A,,Overcast,350,2012-11-27 03:53:00
11:53 PM,35.1,28.9,78,30.26,10.0,North,11.5,-,N/A,,Overcast,10,2012-11-27 04:53:00